Terminal Aerodrome Forecast
Issued by NWS Brownsville, TX

Home | Current Version | Previous Version | Text Only | Print | Product List | Glossary On
Versions: 1 2 3 4 5 6 7 8 9 10 11 12 13 14 15 16 17 18 19 20
000
FTUS44 KBRO 011120
TAFHRL
TAF
KHRL 011120Z 0112/0212 15007KT P6SM VCTS SCT020CB BKN110 OVC250
      TEMPO 0112/0116 VRB15G30KT 3SM TSRA BR BKN020CB
     FM011900 13015KT P6SM VCSH SCT030 BKN040 BKN150
     FM020100 13009KT P6SM SCT040 BKN150=

USA.gov is the U.S. government's official web portal to all federal, state and local government web resources and services.